[[{"header":{"parameterUnit":"m.s-1","parameterCategory":1,"la1":30.2992,"la2":30.254,"lo1":-89.0895,"lo2":-89.0443,"dy":0.0025,"dx":0.0025,"nx":19,"ny":19,"refTime":"2026-04-25T03:00:00:Z","depth":0,"parameterNumber":2,"parameterNumberName":"U-component_of_WINDS"},"data":[0,0,0,-0.3817,-0.3817,-0.3824,-0.3824,-0.3833,-0.3833,0,0,0,0,0,0,0,0,0,0,0,-0.3813,-0.3813,-0.3817,-0.3817,-0.3824,-0.3824,-0.3833,-0.3833,0,0,0,0,0,0,0,0,0,0,0,-0.3813,-0.3813,-0.3813,-0.3817,-0.3824,-0.3824,-0.3833,-0.3828,0,0,0,0,0,0,0,0,0,0,-0.3821,-0.3816,-0.3813,-0.3813,-0.3817,-0.3824,-0.3824,-0.3827,-0.3828,-0.3829,0,-0.3828,0,-0.383,-0.3833,-0.3833,0,0,0,-0.3818,-0.3815,-0.3818,-0.3813,-0.3817,-0.3824,-0.3821,-0.3828,-0.3828,-0.3829,-0.3828,-0.3828,-0.3831,-0.3833,-0.3833,-0.3832,-0.3832,0,0,-0.3818,-0.3814,-0.3818,-0.3819,-0.3816,-0.3821,-0.3821,-0.3828,-0.3827,-0.3828,-0.3829,-0.3831,-0.3833,-0.3833,-0.3832,-0.3832,0,0,0,-0.3816,-0.3813,-0.3816,-0.3818,-0.382,-0.3821,-0.3822,-0.3826,-0.3828,-0.3829,-0.3831,-0.3833,-0.3833,-0.3832,-0.3832,-0.3824,0,0,0,-0.3815,-0.3812,-0.3816,-0.3814,-0.3819,-0.3823,-0.382,-0.3827,-0.3828,-0.3831,-0.3833,-0.3833,-0.3832,-0.3832,-0.3824,-0.3821,0,0,0,-0.3813,-0.3812,-0.3812,-0.3813,-0.3816,-0.3823,-0.3825,-0.3828,-0.3829,-0.3833,-0.3833,-0.3832,-0.3832,-0.3825,-0.3821,-0.382,0,0,0,-0.3809,-0.3805,-0.3812,-0.3808,-0.3816,-0.3818,-0.3825,-0.3826,-0.3828,-0.3833,-0.3832,-0.3832,-0.3825,-0.3822,-0.382,-0.3817,-0.3815,0,0,-0.3802,-0.3804,-0.3802,-0.3809,-0.3808,-0.3817,-0.3816,-0.3822,-0.3826,-0.383,-0.383,-0.3824,-0.3822,-0.382,-0.3808,-0.3807,0,0,0,-0.3798,-0.3797,-0.3798,-0.38,-0.3804,-0.3808,-0.3815,-0.3818,-0.3821,-0.3827,-0.3823,-0.3822,-0.3821,-0.382,-0.3819,-0.3818,-0.3831,-0.3831,-0.3831,-0.3781,-0.3787,-0.3785,-0.3792,-0.3794,-0.3802,-0.3804,-0.3809,-0.3815,-0.3814,-0.3815,-0.3807,-0.3805,-0.3805,-0.3804,-0.3814,-0.3814,-0.3814,-0.3814,-0.3771,-0.377,-0.3778,-0.3779,-0.3786,-0.3787,-0.3795,-0.3799,-0.3802,-0.3806,-0.3806,-0.3811,-0.3803,-0.3803,-0.3813,-0.3813,-0.3813,-0.3813,-0.3814,-0.376,-0.3761,-0.3764,-0.3768,-0.3771,-0.3779,-0.3781,-0.3788,-0.3794,-0.3793,-0.3795,-0.3796,-0.3797,-0.3794,-0.3794,-0.3794,-0.3794,-0.3794,-0.3794,-0.3748,-0.3752,-0.3752,-0.3758,-0.376,-0.3765,-0.3774,-0.3777,-0.3782,-0.3787,-0.3787,-0.3793,-0.3801,-0.3803,-0.3793,-0.3793,-0.3794,-0.3794,-0.3794,-0.3735,-0.3739,-0.374,-0.3742,-0.375,-0.3753,-0.3762,-0.3768,-0.3771,-0.3773,-0.3779,-0.3784,-0.3787,-0.3788,-0.379,-0.3778,-0.3778,-0.3778,-0.3778,-0.3725,-0.3728,-0.3731,-0.3735,-0.374,-0.3748,-0.375,-0.3758,-0.3767,-0.377,-0.3772,-0.3775,-0.3776,-0.3779,-0.378,-0.3781,-0.3767,-0.3767,-0.3767,-0.3718,-0.3721,-0.3721,-0.3729,-0.3736,-0.3742,-0.3745,-0.3751,-0.3761,-0.3767,-0.3772,-0.3773,-0.3777,-0.3778,-0.3783,-0.3785,-0.3788,0,0]},{"header":{"parameterUnit":"m.s-1","parameterCategory":1,"la1":30.2992,"la2":30.254,"lo1":-89.0895,"lo2":-89.0443,"dy":0.0025,"dx":0.0025,"nx":19,"ny":19,"refTime":"2026-04-25T03:00:00:Z","depth":0,"parameterNumber":3,"parameterNumberName":"V-component_of_WINDS"},"data":[0,0,0,2.1171,2.1173,2.1259,2.1259,2.1365,2.1366,0,0,0,0,0,0,0,0,0,0,0,2.1145,2.1146,2.1171,2.1173,2.1259,2.1259,2.1365,2.1366,0,0,0,0,0,0,0,0,0,0,0,2.1145,2.1146,2.1147,2.1173,2.1259,2.126,2.1365,2.1301,0,0,0,0,0,0,0,0,0,0,2.1217,2.1194,2.1145,2.1147,2.1174,2.1259,2.126,2.1298,2.1305,2.1325,0,2.1346,0,2.1358,2.1373,2.1374,0,0,0,2.1172,2.1188,2.1212,2.1147,2.1174,2.1259,2.122,2.1302,2.131,2.1334,2.1347,2.1351,2.136,2.1374,2.1375,2.1501,2.1501,0,0,2.1167,2.116,2.1207,2.1217,2.1207,2.1217,2.1223,2.1307,2.1319,2.1348,2.1354,2.1361,2.1375,2.1376,2.15,2.1501,0,0,0,2.1154,2.1157,2.1178,2.1213,2.1229,2.122,2.1226,2.1315,2.1323,2.1355,2.1363,2.1375,2.1377,2.1499,2.15,2.1525,0,0,0,2.1151,2.1149,2.1176,2.1172,2.1227,2.1274,2.1233,2.1317,2.1327,2.1362,2.1375,2.1378,2.1499,2.15,2.1523,2.1538,0,0,0,2.1139,2.1147,2.116,2.1172,2.1209,2.1273,2.1285,2.1319,2.1332,2.1374,2.1378,2.1498,2.15,2.1521,2.1535,2.1569,0,0,0,2.1124,2.118,2.1161,2.1226,2.1208,2.1288,2.1285,2.1344,2.1383,2.1376,2.1499,2.15,2.1521,2.1533,2.1567,2.1597,2.1609,0,0,2.119,2.1187,2.1226,2.1212,2.1293,2.1275,2.136,2.1401,2.141,2.1469,2.1472,2.1524,2.1534,2.1569,2.1678,2.1688,0,0,0,2.1245,2.1273,2.1296,2.1334,2.1369,2.1399,2.1429,2.1444,2.1495,2.144,2.1546,2.1552,2.1572,2.1587,2.1595,2.1613,2.1507,2.1507,2.1506,2.1328,2.1339,2.1403,2.1425,2.1461,2.1492,2.1522,2.1547,2.1546,2.157,2.1588,2.1654,2.1671,2.1677,2.1695,2.1605,2.1605,2.1605,2.1605,2.1426,2.1467,2.1465,2.1528,2.1538,2.1589,2.162,2.1617,2.1665,2.1641,2.1659,2.1632,2.1687,2.1703,2.1607,2.1606,2.1606,2.1606,2.1606,2.1481,2.1503,2.1522,2.1579,2.162,2.1638,2.1685,2.1692,2.1698,2.1717,2.1736,2.1736,2.1736,2.1725,2.1726,2.1726,2.1726,2.1726,2.1726,2.1531,2.1552,2.1592,2.1634,2.166,2.1694,2.1724,2.1749,2.1777,2.1778,2.1778,2.1774,2.1691,2.167,2.173,2.1729,2.1729,2.1729,2.1728,2.1627,2.1607,2.1669,2.1695,2.1744,2.1784,2.1793,2.1841,2.1862,2.1885,2.1877,2.1814,2.1811,2.1805,2.1787,2.1875,2.1875,2.1875,2.1875,2.1674,2.1674,2.1739,2.178,2.182,2.1834,2.1901,2.1925,2.1946,2.1959,2.1947,2.1924,2.1918,2.1918,2.191,2.1893,2.2006,2.2006,2.2006,2.1733,2.1737,2.1795,2.1818,2.1857,2.1889,2.1952,2.1997,2.2016,2.2012,2.1969,2.1963,2.1927,2.1915,2.191,2.1896,2.1867,0,0]}]]